Location: Newark
(49.8969°N, 3.3422°E)
Time: 20:42:06
(UTC+00:00)

Vanguard 1 Rocket - Pass Details

Date: 23 January 2020
Orbit: 650 x 4226 km, 34.3° (Epoch: 22 February)

Event Time Altitude Azimuth Distance (km) Brightness Sun altitude
Rises 17:02:51 0° 274° (W) 6,883 13.2 -6.3°
Reaches altitude 10° 17:09:05 10° 259° (W) 6,413 13.3 -7.2°
Maximum altitude 17:22:10 20° 222° (SW) 6,351 12.6 -9.1°
Drops below altitude 10° 17:37:21 10° 186° (S) 7,409 12.3 -11.5°
Sets 17:45:51 0° 172° (S) 8,248 12.4 -12.8°
